Regional Weather Roundup
Issued by NWS

Home | Current Version | Previous Version | Text Only | Print | Product List | Glossary Off
Versions: 1 2 3 4 5 6 7 8 9 10 11 12 13 14 15 16 17 18 19 20 21 22 23 24 25 26 27 28 29 30 31 32 33 34 35 36 37 38 39 40 41 42 43 44 45 46 47 48 49 50

000
ASUS43 KFSD 270902
RWRSD

WEATHER ROUNDUP FOR SOUTH DAKOTA
NATIONAL WEATHER SERVICE SIOUX FALLS SD
400 AM CDT WED MAY 27 2015

NOTE: "FAIR" INDICATES FEW OR NO CLOUDS BELOW 12,000 FEET WITH NO
SIGNIFICANT WEATHER AND/OR OBSTRUCTIONS TO VISIBILITY.


SDZ001>005-009-010-012>017-271000-
NORTHWEST AND NORTH CENTRAL SOUTH DAKOTA

CITY           SKY/WX    TMP DP  RH WIND       PRES   REMARKS
FAITH            N/A     54  44  69 S12       29.96S
MOBRIDGE       CLEAR     53  51  93 CALM      29.92R
$$

SDZ012>016-024>037-041>051-057-063-072>074-271000-
SOUTHWEST AND SOUTH CENTRAL SOUTH DAKOTA

CITY           SKY/WX    TMP DP  RH WIND       PRES   REMARKS
RAPID CTY ARPT MOCLDY    51  48  89 SE5       29.97S
PIERRE         CLEAR     54  48  80 CALM      29.95R
CUSTER         CLOUDY    45  43  93 CALM      30.04F
ELLSWORTH AFB  MOCLDY    53  49  83 SW5       29.97S
PHILIP         CLEAR     49  46  90 CALM      29.97S
PINE RIDGE     CLOUDY    53  48  83 NW7       30.02R
WINNER         FAIR      59  46  62 CALM      29.99R
$$

SDZ004>011-016>023-039-040-271000-
NORTHEAST SOUTH DAKOTA

CITY           SKY/WX    TMP DP  RH WIND       PRES   REMARKS
ABERDEEN       CLEAR     53  49  86 W6        29.89S
WATERTOWN      CLEAR     58  49  72 W8        29.90R
BROOKINGS      CLEAR     54  48  82 W3        29.91S
$$

SDZ017-020-022-023-036>040-048>070-271000-
SOUTHEAST SOUTH DAKOTA

CITY           SKY/WX    TMP DP  RH WIND       PRES   REMARKS
SIOUX FALLS    CLEAR     53  49  86 CALM      29.92R
HURON          CLEAR     54  49  83 SW6       29.91S
CHAMBERLAIN    CLEAR     54  50  86 W6        29.97R
MITCHELL       CLEAR     57  51  80 W7        29.93R
YANKTON        CLEAR     55  48  76 SW5       29.94R
$$

ABBREVIATIONS USED IN REMARKS
   TC - TEMPERATURE IN CELSIUS
  WCI - WIND CHILL INDEX
   HX - HEAT INDEX
  VSB - VISIBILITY




USA.gov is the U.S. government's official web portal to all federal, state and local government web resources and services.